Date,TemperatureHighF,TemperatureAvgF,TemperatureLowF,DewpointHighF,DewpointAvgF,DewpointLowF,HumidityHigh,HumidityAvg,HumidityLow,PressureMaxIn,PressureMinIn,WindSpeedMaxMPH,WindSpeedAvgMPH,GustSpeedMaxMPH,PrecipitationSumIn
2013-1-1,5,-4,-7,-6,-10,-26,86,76,21,0.00,40.00,28,12,47,0.00
2013-1-2,8,5,1,-9,-21,-30,61,31,15,0.00,40.00,33,25,54,0.00
2013-1-3,12,11,10,-13,-21,-30,30,22,13,0.00,40.00,27,21,42,0.00
2013-1-4,16,14,11,-3,-10,-100,47,37,20,0.00,40.00,27,18,48,0.00
2013-1-5,20,17,13,-10,-17,-100,32,22,14,0.00,40.00,30,18,42,0.00
2013-1-6,22,19,16,-11,-15,-21,27,20,14,0.00,40.00,26,17,44,0.00
2013-1-7,25,19,16,-6,-18,-100,34,19,9,0.00,40.00,21,10,34,0.00
2013-1-8,23,18,14,8,-6,-29,69,37,11,0.00,40.00,24,17,34,0.00
2013-1-9,26,23,21,2,-4,-17,40,29,15,0.00,40.00,17,12,26,0.00
2013-1-10,24,17,10,10,-7,-23,93,45,12,0.00,40.00,42,21,64,0.00
2013-1-11,9,-6,-15,7,-10,-20,91,84,77,0.00,40.00,55,22,99,0.00
2013-1-12,-12,-16,-18,-18,-20,-23,80,77,71,0.00,40.00,16,8,22,0.00
2013-1-13,-10,-15,-18,-14,-19,-23,81,79,73,0.00,40.00,21,13,43,0.00
2013-1-14,-5,-12,-15,-9,-16,-19,83,81,80,0.00,40.00,24,10,38,0.00
2013-1-15,10,-3,-14,6,-10,-31,88,72,34,0.00,40.00,56,34,78,0.00
2013-1-16,27,21,12,11,6,2,78,54,34,0.00,40.00,40,21,70,0.00
2013-1-17,27,21,18,12,3,-8,74,46,28,0.00,40.00,8,4,18,0.00
2013-1-18,22,18,16,3,-10,-21,55,29,15,0.00,40.00,16,9,20,0.00
2013-1-19,24,18,15,-7,-15,-25,31,22,11,0.00,40.00,27,18,39,0.00
2013-1-20,25,22,18,-6,-26,-100,33,14,4,0.00,40.00,17,11,31,0.00
2013-1-21,25,21,18,0,-5,-17,44,32,15,0.00,40.00,29,14,43,0.00
2013-1-22,28,26,22,-7,-20,-100,26,14,4,0.00,40.00,28,16,41,0.00
2013-1-23,35,30,27,-10,-24,-39,14,8,3,0.00,40.00,19,12,37,0.00
2013-1-24,29,24,20,21,4,-26,96,59,7,0.00,40.00,26,12,48,0.00
2013-1-25,25,22,19,22,20,16,97,91,84,0.00,40.00,13,7,26,0.00
2013-1-26,24,22,20,23,21,19,97,96,96,0.00,40.00,23,14,37,0.00
2013-1-27,21,18,14,20,15,10,96,87,66,0.00,40.00,30,20,108,0.00
2013-1-28,16,10,2,14,7,-3,94,86,76,0.00,40.00,38,23,89,0.00
2013-1-29,0,-7,-10,-3,-11,-14,85,81,74,0.00,40.00,30,17,62,0.00
2013-1-30,5,-2,-11,3,-6,-15,90,86,82,0.00,40.00,27,21,54,0.00
2013-1-31,17,12,4,3,-7,-16,90,47,20,0.00,40.00,29,17,43,0.00